Starlink 11714

operational
NORAD ID: 64134 Int'l Des: 2025-111 Owner: SPXS Country: US Constellation: starlink
LEOCIRCULAR

关于 Starlink 11714

正在加载描述...

实时位置

正在加载3D地球...

即将过境

高度历史

Altitude vs Time

uPlot chart will show altitude changes over time

两行轨道根数

1 64134U 25111M 25260.48771084 .00211927 00000-0 16105-2 0 9999
2 64134 42.9991 297.4321 0001783 302.5153 57.5542 15.70881309 19404
Epoch: Sep 17, 2025 • Age: 38 hours

当前状态

高度 353.0 km
速度 7.70 km/s
星下点 10.10°N, 88.08°W
发射日期 May 24, 2025
运行时间 0.3 years
类型 internet

技术详情

分类 Payload
质量 960.00 kg
干质量 910.00 kg
总质量 960.00 kg
长度 0.30 m
直径 4.10 m
跨度 29.00 m
形状 Box + pan
制造商 SPXS
平台类型 Starlink V2MD
阶段状态 In Orbit
所有者/国家 SPXS/US

大型星座

Loading constellations...